Time,TemperatureF,DewpointF,PressureIn,WindDirection,WindDirectionDegrees,WindSpeedMPH,WindSpeedGustMPH,Humidity,HourlyPrecipIn,Conditions,Clouds,dailyrainin,SoftwareType,DateUTC
2013-10-14 00:14:00,56.0,51.0,30.23,West,270,0.0,0.0,84,0.00,,,0.02,,2013-10-14 04:14:00,
2013-10-14 00:24:00,56.0,51.0,30.23,West,270,0.0,0.0,84,0.00,,,0.02,,2013-10-14 04:24:00,
2013-10-14 00:43:00,57.0,52.0,30.23,West,270,0.0,0.0,84,0.00,,,0.02,,2013-10-14 04:43:00,
2013-10-14 00:54:00,57.0,52.0,30.22,West,270,0.0,0.0,84,0.00,,,0.02,,2013-10-14 04:54:00,
2013-10-14 01:12:00,57.0,52.0,30.22,West,270,0.0,0.0,84,0.00,,,0.02,,2013-10-14 05:12:00,
2013-10-14 01:23:00,57.0,52.0,30.22,West,270,0.0,0.0,84,0.00,,,0.02,,2013-10-14 05:23:00,
2013-10-14 01:43:00,57.0,52.0,30.22,West,270,0.0,0.0,84,0.00,,,0.02,,2013-10-14 05:43:00,
2013-10-14 01:52:00,57.0,52.0,30.22,West,270,0.0,0.0,84,0.00,,,0.02,,2013-10-14 05:52:00,
2013-10-14 02:13:00,57.0,52.0,30.23,West,270,0.0,0.0,84,0.00,,,0.02,,2013-10-14 06:13:00,
2013-10-14 02:22:00,57.0,52.0,30.22,West,270,0.0,0.0,84,0.00,,,0.02,,2013-10-14 06:22:00,
2013-10-14 02:52:00,56.0,52.0,30.23,West,270,0.0,0.0,85,0.00,,,0.02,,2013-10-14 06:52:00,
2013-10-14 03:11:00,56.0,52.0,30.23,West,270,0.0,0.0,85,0.00,,,0.02,,2013-10-14 07:11:00,
2013-10-14 03:22:00,56.0,52.0,30.23,West,270,0.0,0.0,85,0.00,,,0.02,,2013-10-14 07:22:00,
2013-10-14 03:42:00,56.0,52.0,30.22,West,270,0.0,0.0,85,0.00,,,0.02,,2013-10-14 07:42:00,
2013-10-14 03:52:00,56.0,52.0,30.22,West,270,0.0,0.0,85,0.00,,,0.02,,2013-10-14 07:52:00,
2013-10-14 04:12:00,55.0,51.0,30.22,West,270,0.0,0.0,85,0.00,,,0.02,,2013-10-14 08:12:00,
2013-10-14 04:22:00,55.0,51.0,30.22,West,270,0.0,0.0,85,0.00,,,0.02,,2013-10-14 08:22:00,
2013-10-14 04:42:00,54.0,50.0,30.23,West,270,0.0,0.0,85,0.00,,,0.02,,2013-10-14 08:42:00,
2013-10-14 04:52:00,54.0,50.0,30.23,West,270,0.0,0.0,85,0.00,,,0.02,,2013-10-14 08:52:00,
2013-10-14 05:11:00,54.0,50.0,30.22,West,270,0.0,0.0,85,0.00,,,0.02,,2013-10-14 09:11:00,
2013-10-14 05:22:00,53.0,49.0,30.22,West,270,0.0,0.0,85,0.00,,,0.02,,2013-10-14 09:22:00,
2013-10-14 05:43:00,53.0,49.0,30.22,West,270,0.0,0.0,86,0.00,,,0.02,,2013-10-14 09:43:00,
2013-10-14 05:53:00,53.0,49.0,30.22,West,270,0.0,0.0,86,0.00,,,0.02,,2013-10-14 09:53:00,
2013-10-14 06:13:00,53.0,49.0,30.22,West,270,0.0,0.0,86,0.00,,,0.02,,2013-10-14 10:13:00,
2013-10-14 06:23:00,53.0,49.0,30.22,West,270,0.0,0.0,86,0.00,,,0.00,,2013-10-14 10:23:00,
2013-10-14 06:42:00,53.0,49.0,30.23,West,270,0.0,0.0,86,0.00,,,0.00,,2013-10-14 10:42:00,
2013-10-14 06:53:00,53.0,49.0,30.23,West,270,0.0,0.0,86,0.00,,,0.00,,2013-10-14 10:53:00,
2013-10-14 07:12:00,53.0,49.0,30.23,West,270,0.0,0.0,86,0.00,,,0.00,,2013-10-14 11:12:00,
2013-10-14 07:22:00,53.0,49.0,30.23,West,270,0.0,0.0,86,0.00,,,0.00,,2013-10-14 11:22:00,
2013-10-14 07:42:00,53.0,49.0,30.23,West,270,0.0,0.0,86,0.00,,,0.00,,2013-10-14 11:42:00,
2013-10-14 07:52:00,53.0,49.0,30.23,West,270,0.0,0.0,86,0.00,,,0.00,,2013-10-14 11:52:00,
2013-10-14 08:12:00,53.0,49.0,30.23,West,270,0.0,0.0,86,0.00,,,0.00,,2013-10-14 12:12:00,
2013-10-14 08:22:00,53.0,49.0,30.24,West,270,0.0,0.0,87,0.00,,,0.00,,2013-10-14 12:22:00,
2013-10-14 08:32:00,53.0,49.0,30.24,West,270,0.0,0.0,87,0.00,,,0.00,,2013-10-14 12:32:00,
2013-10-14 08:42:00,53.0,49.0,30.24,West,270,0.0,0.0,87,0.00,,,0.00,,2013-10-14 12:42:00,
2013-10-14 08:52:00,53.0,49.0,30.25,West,270,0.0,0.0,87,0.00,,,0.00,,2013-10-14 12:52:00,
2013-10-14 09:11:00,54.0,50.0,30.25,West,270,0.0,0.0,87,0.00,,,0.00,,2013-10-14 13:11:00,
2013-10-14 09:22:00,54.0,50.0,30.25,West,270,0.0,0.0,87,0.00,,,0.00,,2013-10-14 13:22:00,
2013-10-14 09:42:00,55.0,52.0,30.25,West,270,0.0,0.0,88,0.00,,,0.00,,2013-10-14 13:42:00,
2013-10-14 09:52:00,55.0,52.0,30.25,West,270,0.0,0.0,88,0.00,,,0.00,,2013-10-14 13:52:00,
2013-10-14 10:11:00,56.0,52.0,30.25,West,270,0.0,0.0,88,0.00,,,0.00,,2013-10-14 14:11:00,
2013-10-14 10:22:00,56.0,52.0,30.25,West,270,0.0,0.0,88,0.00,,,0.00,,2013-10-14 14:22:00,
2013-10-14 10:42:00,57.0,53.0,30.25,West,270,0.0,0.0,88,0.00,,,0.00,,2013-10-14 14:42:00,
2013-10-14 10:52:00,58.0,54.0,30.25,West,270,0.0,0.0,88,0.00,,,0.00,,2013-10-14 14:52:00,
2013-10-14 11:01:00,58.0,54.0,30.25,West,270,0.0,0.0,88,0.00,,,0.00,,2013-10-14 15:01:00,
2013-10-14 11:11:00,58.0,54.0,30.25,West,270,0.0,0.0,88,0.00,,,0.00,,2013-10-14 15:11:00,
2013-10-14 11:22:00,59.0,55.0,30.25,West,270,0.0,0.0,86,0.00,,,0.00,,2013-10-14 15:22:00,
2013-10-14 11:33:00,59.0,55.0,30.25,West,270,0.0,0.0,86,0.00,,,0.00,,2013-10-14 15:33:00,
2013-10-14 11:44:00,59.0,55.0,30.25,West,270,0.0,0.0,86,0.00,,,0.00,,2013-10-14 15:44:00,
2013-10-14 11:54:00,60.0,55.0,30.24,West,270,0.0,0.0,85,0.00,,,0.00,,2013-10-14 15:54:00,
2013-10-14 12:13:00,61.0,56.0,30.24,North,0,0.0,0.0,83,0.00,,,0.00,,2013-10-14 16:13:00,
2013-10-14 12:23:00,61.0,56.0,30.24,North,0,0.0,0.0,83,0.00,,,0.00,,2013-10-14 16:23:00,
2013-10-14 12:53:00,61.0,56.0,30.24,North,0,0.0,0.0,83,0.00,,,0.00,,2013-10-14 16:53:00,
2013-10-14 13:02:00,61.0,56.0,30.24,North,0,0.0,0.0,83,0.00,,,0.00,,2013-10-14 17:02:00,
2013-10-14 13:12:00,61.0,56.0,30.24,North,0,0.0,0.0,83,0.00,,,0.00,,2013-10-14 17:12:00,
2013-10-14 13:22:00,61.0,56.0,30.24,North,0,0.0,0.0,83,0.00,,,0.00,,2013-10-14 17:22:00,
2013-10-14 13:42:00,61.0,56.0,30.22,NNW,338,0.0,0.0,83,0.00,,,0.00,,2013-10-14 17:42:00,
2013-10-14 13:52:00,61.0,56.0,30.21,NNW,338,0.0,0.0,83,0.00,,,0.00,,2013-10-14 17:52:00,
2013-10-14 14:12:00,62.0,57.0,30.21,North,0,0.0,0.0,83,0.00,,,0.00,,2013-10-14 18:12:00,
2013-10-14 14:22:00,63.0,57.0,30.20,NNW,338,0.0,0.0,82,0.00,,,0.00,,2013-10-14 18:22:00,
2013-10-14 14:42:00,63.0,57.0,30.20,NNW,338,0.0,0.0,82,0.00,,,0.00,,2013-10-14 18:42:00,
2013-10-14 14:52:00,63.0,57.0,30.20,NNW,338,0.0,0.0,82,0.00,,,0.00,,2013-10-14 18:52:00,
2013-10-14 15:02:00,63.0,57.0,30.20,NNW,338,0.0,0.0,82,0.00,,,0.00,,2013-10-14 19:02:00,
2013-10-14 15:11:00,63.0,57.0,30.20,NNW,338,0.0,0.0,82,0.00,,,0.00,,2013-10-14 19:11:00,
2013-10-14 15:42:00,65.0,58.0,30.19,NNE,22,0.0,0.0,79,0.00,,,0.00,,2013-10-14 19:42:00,
2013-10-14 15:52:00,65.0,58.0,30.19,North,0,0.0,0.0,78,0.00,,,0.00,,2013-10-14 19:52:00,
2013-10-14 16:11:00,65.0,58.0,30.19,North,0,0.0,0.0,78,0.00,,,0.00,,2013-10-14 20:11:00,
2013-10-14 16:22:00,65.0,58.0,30.18,North,0,0.0,0.0,78,0.00,,,0.00,,2013-10-14 20:22:00,
2013-10-14 16:32:00,65.0,58.0,30.18,North,0,0.0,0.0,78,0.00,,,0.00,,2013-10-14 20:32:00,
2013-10-14 16:43:00,65.0,58.0,30.18,North,0,0.0,0.0,78,0.00,,,0.00,,2013-10-14 20:43:00,
2013-10-14 16:52:00,66.0,59.0,30.18,NNW,338,0.0,0.0,77,0.00,,,0.00,,2013-10-14 20:52:00,
2013-10-14 17:12:00,66.0,59.0,30.18,West,281,0.0,0.0,77,0.00,,,0.00,,2013-10-14 21:12:00,
2013-10-14 17:22:00,66.0,59.0,30.18,West,281,0.0,0.0,77,0.00,,,0.00,,2013-10-14 21:22:00,
2013-10-14 17:44:00,66.0,58.0,30.17,North,0,0.0,0.0,76,0.00,,,0.00,,2013-10-14 21:44:00,
2013-10-14 17:54:00,66.0,58.0,30.17,North,0,0.0,0.0,76,0.00,,,0.00,,2013-10-14 21:54:00,
2013-10-14 18:24:00,65.0,58.0,30.17,NNE,22,0.0,0.0,77,0.00,,,0.00,,2013-10-14 22:24:00,
2013-10-14 18:43:00,65.0,58.0,30.18,NNE,22,0.0,0.0,77,0.00,,,0.00,,2013-10-14 22:43:00,
2013-10-14 18:54:00,65.0,58.0,30.18,NNE,22,0.0,0.0,78,0.00,,,0.00,,2013-10-14 22:54:00,
2013-10-14 19:22:00,64.0,57.0,30.19,NNE,22,0.0,0.0,79,0.00,,,0.00,,2013-10-14 23:22:00,
2013-10-14 19:42:00,64.0,57.0,30.19,NNE,22,0.0,0.0,79,0.00,,,0.00,,2013-10-14 23:42:00,
2013-10-14 19:53:00,63.0,57.0,30.20,NNE,22,0.0,0.0,80,0.00,,,0.00,,2013-10-14 23:53:00,
2013-10-14 20:12:00,63.0,57.0,30.20,NNE,22,1.0,14.0,80,0.00,,,0.00,,2013-10-15 00:12:00,
2013-10-14 20:22:00,63.0,57.0,30.20,NNE,22,0.0,0.0,80,0.00,,,0.00,,2013-10-15 00:22:00,
2013-10-14 20:42:00,63.0,57.0,30.20,NNE,22,0.0,0.0,80,0.00,,,0.00,,2013-10-15 00:42:00,
2013-10-14 20:52:00,62.0,55.0,30.20,NNE,22,0.0,0.0,79,0.00,,,0.00,,2013-10-15 00:52:00,
2013-10-14 21:12:00,62.0,56.0,30.20,NNE,22,0.0,0.0,80,0.00,,,0.00,,2013-10-15 01:12:00,
2013-10-14 21:22:00,61.0,55.0,30.20,NNE,22,0.0,0.0,80,0.00,,,0.00,,2013-10-15 01:22:00,
2013-10-14 21:42:00,61.0,55.0,30.20,NNE,22,0.0,0.0,80,0.00,,,0.00,,2013-10-15 01:42:00,
2013-10-14 21:52:00,60.0,54.0,30.21,NNE,22,0.0,0.0,80,0.00,,,0.00,,2013-10-15 01:52:00,
2013-10-14 22:12:00,59.0,53.0,30.21,NNE,22,0.0,0.0,81,0.00,,,0.00,,2013-10-15 02:12:00,
2013-10-14 22:22:00,59.0,53.0,30.21,NNE,22,0.0,0.0,81,0.00,,,0.00,,2013-10-15 02:22:00,
2013-10-14 22:52:00,58.0,53.0,30.21,NNE,22,0.0,0.0,82,0.00,,,0.00,,2013-10-15 02:52:00,
2013-10-14 23:12:00,57.0,52.0,30.20,NNE,22,0.0,0.0,82,0.00,,,0.00,,2013-10-15 03:12:00,
2013-10-14 23:23:00,57.0,52.0,30.20,NNE,22,0.0,0.0,82,0.00,,,0.00,,2013-10-15 03:23:00,
2013-10-14 23:34:00,57.0,52.0,30.20,NNE,22,0.0,0.0,82,0.00,,,0.00,,2013-10-15 03:34:00,
2013-10-14 23:44:00,57.0,52.0,30.20,NNE,22,0.0,0.0,82,0.00,,,0.00,,2013-10-15 03:44:00,
2013-10-14 23:55:00,57.0,52.0,30.20,NNE,22,0.0,0.0,84,0.00,,,0.00,,2013-10-15 03:55:00,